Wind_Speed
8 8 9 7 7 6 7 9 11 11 10 11 12 11 11 10 9 8 8 8 8 11 14 15 7 10 10 6 4 4 5 3 3 4 2 8 4 7 5 3 3 4 8 4 20
6 6 6 6 5 7 9 13 13 12 12 11 13 8 9 8 12 10 8 9 11 15 17 23 25 20 4 7 10 8 4 1 3 5 1 3 6 2 2 9 10 12 11 18 17
2 2 3 4 5 8 12 14 14 12 12 14 10 7 8 4 8 9 8 9 13 18 20 22 20 9 5 8 5 3 2 3 3 4 4 4 7 4 4 3 8 18 19 19 14
3 4 5 7 11 13 14 14 13 11 15 13 7 9 8 6 3 5 10 15 14 18 15 20 19 9 6 5 4 4 3 4 2 1 2 2 4 5 1 3 6 11 14 19 18
7 9 11 13 14 15 15 13 11 11 14 7 4 6 8 7 8 8 11 13 12 16 16 15 18 10 4 2 5 3 2 2 4 5 5 4 4 5 8 9 11 12 19 19 17
11 14 16 17 16 14 12 12 11 11 9 3 2 6 5 4 7 9 11 13 11 11 14 10 12 14 4 4 3 3 5 5 10 9 8 5 5 1 13 7 15 16 20 17 14
15 17 17 16 14 13 13 13 11 9 8 6 3 6 4 3 5 9 5 6 6 9 12 11 10 11 10 5 4 4 4 7 12 6 4 5 3 5 6 9 18 22 18 16 15
14 15 15 14 13 14 14 14 13 12 8 3 4 5 0 3 4 6 9 3 7 5 8 7 11 11 5 7 5 3 4 4 6 8 4 3 7 10 12 8 22 25 20 15 16
15 15 14 13 13 13 14 11 10 7 3 2 4 4 2 2 5 4 8 11 7 6 8 11 12 3 3 4 5 6 4 4 9 6 4 3 7 11 18 9 26 24 20 19 19
14 14 13 13 12 11 11 8 6 3 3 5 5 2 2 1 3 7 11 12 10 15 14 3 3 3 5 5 1 4 5 6 1 6 5 5 8 9 9 6 21 25 18 8 8
12 12 12 11 9 9 7 3 1 1 4 4 6 5 4 1 6 10 13 6 8 8 3 4 6 2 4 2 4 1 3 3 4 3 7 6 8 13 6 17 19 20 22 18 15
10 10 10 10 9 6 5 4 4 2 3 4 6 6 3 6 3 10 13 1 4 3 5 7 3 2 5 5 4 6 3 4 6 6 3 9 11 7 7 6 20 23 21 17 15
8 8 8 8 4 3 8 4 7 3 1 1 1 2 3 4 3 9 12 4 2 5 4 5 2 3 5 6 7 3 2 4 6 7 3 5 6 6 3 10 16 15 15 11 6
9 9 8 6 4 3 4 5 4 5 4 2 2 1 3 1 2 7 10 4 5 2 2 1 3 4 6 2 3 4 4 5 6 4 2 4 3 4 3 2 2 8 12 11 9
8 11 10 8 5 4 2 2 4 2 5 3 0 1 3 3 3 7 8 2 2 4 5 4 2 4 4 3 3 7 7 8 4 4 3 9 3 6 4 4 6 5 12 11 9
6 10 12 11 6 3 3 2 2 6 1 2 1 1 1 3 4 7 16 6 5 4 3 3 2 3 1 4 1 6 6 5 4 3 3 3 1 4 5 5 5 7 8 7 6
7 7 9 9 7 5 5 1 4 5 2 2 1 2 3 4 5 5 5 11 5 6 7 6 4 4 3 5 7 8 6 4 5 5 4 5 4 2 1 7 10 10 8 5 1
9 7 6 8 7 7 3 5 6 4 3 1 1 1 2 2 2 5 4 5 7 5 3 5 7 7 6 2 2 4 5 4 1 0 5 7 1 3 5 4 6 10 12 9 3
9 10 7 5 10 5 1 5 5 4 3 4 3 3 3 5 3 5 4 3 6 7 4 5 4 5 4 5 2 4 4 1 5 2 3 5 5 8 4 8 9 5 9 10 7
6 9 8 7 9 2 4 3 2 2 3 4 3 4 3 5 4 3 4 5 3 8 2 3 4 2 6 6 3 3 1 5 4 2 3 5 6 5 7 13 14 5 2 9 14
4 3 5 6 2 2 4 2 2 3 3 4 4 4 4 3 4 3 3 3 3 5 9 2 2 7 4 3 2 5 4 3 1 4 3 2 6 4 11 10 11 7 11 12 9
3 4 3 4 3 3 2 2 3 3 5 5 5 4 3 4 4 3 2 3 1 2 2 3 4 3 5 8 2 2 3 5 3 5 3 3 10 14 7 19 8 10 9 13 12
4 4 5 5 3 2 2 4 7 4 6 4 3 4 3 3 3 3 2 4 4 2 3 0 2 3 7 6 8 4 8 4 3 2 6 3 6 10 27 10 11 12 14 10 3
3 3 4 7 3 6 4 2 3 6 5 5 2 4 5 4 5 1 6 4 2 2 5 4 3 6 5 6 3 9 15 11 4 3 5 13 16 19 12 7 7 9 10 13 15
4 2 2 2 6 8 4 1 4 2 3 4 5 6 3 2 4 2 3 5 7 1 1 4 5 4 7 8 5 16 17 16 11 14 6 10 10 12 4 2 8 11 11 16 16
4 3 4 4 3 6 6 3 2 4 3 3 5 2 6 3 3 2 1 0 5 3 2 3 4 4 11 7 8 17 15 13 13 14 9 9 14 2 12 11 15 16 23 23 18
8 7 3 3 2 4 2 2 2 6 4 7 6 4 4 1 4 5 7 8 13 6 3 2 3 2 6 5 5 10 8 6 5 7 7 6 6 5 6 13 19 28 29 23 24
Wind_Direction
264 261 253 245 232 215 193 151 158 154 148 135 123 97 82 79 68 65 72 42 23 8 4 358 6 344 316 310 329 116 66 32 320 73 229 35 89 88 91 97 99 135 154 156 159
248 242 236 224 206 189 156 161 154 156 146 136 105 89 60 79 54 57 69 66 28 5 7 357 345 352 43 47 41 74 84 96 228 161 249 99 84 97 79 53 90 130 135 153 162
287 238 203 179 167 147 153 155 161 157 139 120 112 61 28 62 56 31 55 34 10 351 349 9 357 352 44 49 41 58 115 210 353 66 64 51 45 51 43 28 159 157 154 165 180
111 124 128 136 135 138 147 157 151 145 133 132 99 53 60 55 106 47 31 13 9 350 10 16 31 38 51 39 48 81 127 162 218 107 95 59 9 352 295 196 160 172 172 176 183
87 108 121 119 127 141 147 142 137 136 150 129 61 23 32 65 59 39 25 18 5 33 19 7 27 14 23 16 80 82 236 188 217 214 219 204 230 227 266 258 183 164 177 185 192
109 115 118 123 124 124 124 121 127 144 159 135 28 358 4 58 33 31 28 11 22 24 13 6 356 356 13 4 89 305 289 274 239 235 241 200 260 270 273 238 198 189 183 186 193
107 112 115 112 112 110 110 118 130 143 138 145 69 45 84 72 45 21 354 329 355 357 0 15 9 6 337 343 324 290 296 321 272 239 241 212 327 215 315 255 225 208 211 208 216
107 110 108 106 106 110 110 114 123 137 151 133 16 3 124 123 28 19 7 340 307 314 313 346 341 325 304 303 345 328 52 340 303 157 260 122 266 270 315 236 211 210 207 215 223
110 108 104 108 115 117 115 126 134 144 156 316 344 6 3 26 22 30 347 325 306 321 313 293 293 310 358 46 15 13 320 345 355 65 350 204 265 268 323 251 217 218 209 219 228
110 109 111 115 117 115 118 128 146 134 344 326 314 28 70 2 58 352 326 300 298 312 328 281 171 50 27 49 325 307 344 341 315 332 355 261 269 293 356 190 223 230 202 201 184
110 115 118 121 116 104 79 57 137 101 76 50 56 65 61 324 299 357 342 310 302 291 247 17 67 75 285 299 264 105 21 332 285 265 357 292 288 279 196 126 116 129 135 128 110
122 124 130 124 118 114 31 55 41 83 14 33 52 44 58 345 335 349 358 16 28 350 353 28 97 253 305 29 41 42 30 317 285 307 329 304 300 318 123 152 141 136 134 125 111
149 140 136 131 118 79 32 74 111 15 70 308 104 18 38 358 327 334 3 358 4 30 43 127 220 21 62 26 13 326 161 278 254 322 330 336 352 359 356 122 141 136 133 125 126
172 169 164 154 132 102 23 81 49 8 74 310 277 280 327 271 311 332 15 27 11 36 46 141 3 47 35 66 41 307 244 283 291 34 301 45 273 286 263 2 102 130 142 131 135
172 183 180 175 162 166 115 99 358 340 62 270 52 154 310 97 325 8 353 344 34 313 69 260 55 61 50 293 297 255 303 277 294 163 88 342 54 271 87 230 225 86 117 127 136
134 171 188 189 168 181 185 203 319 48 318 18 87 299 121 29 357 69 39 49 38 20 358 256 94 78 242 293 95 286 311 3 31 91 52 256 146 310 309 284 70 92 126 141 147
105 149 173 196 207 187 175 232 46 96 221 52 97 31 78 347 358 75 62 44 35 20 360 347 4 324 359 11 352 15 31 3 14 12 227 322 18 262 295 106 139 172 161 159 188
95 99 138 171 166 164 161 54 78 297 21 241 84 24 97 0 351 29 46 38 10 52 52 34 334 14 346 61 304 333 88 127 228 351 282 326 3 225 172 80 125 141 149 183 119
99 78 85 132 162 161 174 56 181 209 310 352 4 66 36 0 42 90 72 59 35 30 45 13 296 333 36 319 114 328 30 151 107 7 43 283 284 323 246 70 102 125 327 55 31
114 73 60 118 144 146 78 151 105 33 11 39 78 31 97 355 42 59 70 333 350 21 146 323 305 304 299 348 21 78 253 31 8 27 290 301 296 243 320 337 346 7 72 76 86
124 72 63 117 61 72 121 184 121 60 92 81 24 62 69 41 38 51 45 326 15 357 68 35 78 292 342 47 28 353 23 17 144 134 218 265 265 237 315 321 306 53 87 69 51
101 61 53 35 55 25 82 67 119 14 29 80 87 80 73 40 35 70 120 166 211 37 45 336 126 289 283 293 258 135 108 100 92 322 272 233 270 275 284 332 63 89 51 26 1
72 92 55 37 105 333 37 61 56 51 25 37 64 49 76 53 86 54 86 195 171 123 157 214 353 356 348 345 12 2 299 120 161 123 229 212 265 325 314 335 68 42 9 354 302
87 41 47 61 81 122 106 97 100 46 46 50 97 59 62 43 24 31 18 348 320 238 173 148 163 168 203 215 195 286 288 303 174 176 248 255 287 295 317 82 10 349 349 340 326
67 79 48 327 12 85 89 142 123 111 80 45 39 36 132 82 18 36 18 349 342 340 170 116 204 232 234 237 249 267 281 291 280 260 230 275 275 311 106 292 306 311 333 326 311
107 116 86 63 50 57 12 33 117 78 93 20 93 79 58 105 183 264 334 258 238 259 16 3 268 170 288 247 236 260 274 266 269 276 263 269 286 235 315 330 333 327 323 317 316
113 109 113 10 54 75 246 31 110 117 83 121 118 93 53 169 213 231 242 235 245 239 162 226 171 98 263 36 13 301 241 213 221 253 263 261 248 309 305 323 327 320 322 312 324
Height
1519 1519 1519 1520 1521 1522 1523 1522 1527 1527 1529 1528 1530 1530 1530 1529 1529 1529 1527 1527 1525 1524 1524 1522 1522 1521 1519 1518 1516 1517 1535 1546 1537 1532 1530 1523 1521 1522 1525 1527 1529 1529 1531 1530 1534
1517 1517 1517 1518 1519 1519 1520 1525 1525 1528 1528 1529 1528 1532 1530 1529 1531 1528 1529 1528 1526 1525 1523 1520 1518 1517 1517 1519 1519 1520 1542 1534 1532 1528 1526 1526 1522 1522 1525 1528 1530 1531 1531 1532 1534
1514 1515 1515 1515 1516 1518 1521 1524 1528 1529 1529 1530 1534 1532 1532 1532 1533 1531 1530 1530 1527 1526 1524 1520 1518 1518 1517 1519 1521 1526 1536 1529 1528 1527 1522 1523 1523 1523 1526 1529 1529 1529 1530 1532 1533
1515 1514 1515 1517 1518 1521 1525 1528 1529 1530 1529 1532 1534 1534 1534 1533 1539 1533 1531 1530 1527 1526 1523 1520 1519 1521 1520 1524 1523 1530 1527 1527 1527 1524 1522 1523 1522 1524 1526 1526 1527 1527 1527 1530 1532
1514 1515 1516 1518 1522 1526 1529 1529 1529 1530 1530 1532 1536 1535 1536 1536 1533 1534 1531 1531 1531 1527 1524 1525 1524 1527 1526 1527 1525 1528 1529 1526 1526 1524 1523 1522 1523 1524 1524 1525 1526 1525 1526 1527 1529
1518 1519 1521 1524 1526 1528 1528 1529 1530 1532 1534 1536 1537 1535 1536 1536 1537 1534 1533 1531 1531 1531 1530 1529 1529 1528 1524 1525 1527 1527 1527 1527 1524 1524 1523 1523 1524 1525 1520 1523 1524 1523 1524 1525 1528
1520 1522 1523 1525 1527 1528 1529 1530 1532 1534 1536 1538 1538 1538 1538 1539 1537 1534 1534 1535 1535 1532 1530 1530 1530 1529 1528 1527 1528 1527 1529 1524 1521 1521 1522 1522 1525 1523 1518 1518 1520 1520 1521 1523 1525
1523 1525 1526 1528 1529 1531 1532 1533 1535 1537 1538 1539 1539 1539 1539 1539 1537 1535 1536 1535 1534 1532 1532 1532 1532 1531 1529 1528 1527 1529 1530 1536 1519 1518 1522 1524 1534 1516 1515 1515 1514 1516 1518 1521 1522
1528 1529 1530 1531 1533 1534 1534 1536 1537 1538 1539 1540 1540 1540 1538 1538 1538 1538 1537 1535 1533 1532 1531 1531 1532 1531 1530 1534 1542 1540 1545 1538 1528 1522 1524 1524 1527 1513 1511 1511 1510 1512 1515 1518 1520
1530 1531 1532 1533 1534 1535 1536 1538 1539 1540 1540 1539 1539 1541 1540 1541 1539 1538 1537 1535 1534 1532 1530 1530 1531 1535 1537 1543 1560 1548 1544 1537 1533 1528 1524 1524 1522 1511 1509 1505 1505 1506 1513 1517 1518
1531 1532 1534 1535 1536 1537 1539 1540 1543 1543 1540 1541 1540 1540 1540 1540 1540 1539 1536 1535 1534 1533 1535 1531 1540 1547 1539 1537 1537 1537 1540 1542 1533 1527 1526 1523 1522 1511 1508 1506 1506 1507 1512 1516 1517
1533 1534 1535 1536 1538 1539 1540 1540 1542 1544 1542 1542 1542 1542 1542 1542 1541 1539 1537 1535 1535 1537 1532 1538 1544 1536 1535 1536 1537 1538 1540 1543 1535 1526 1527 1522 1518 1509 1507 1508 1507 1507 1511 1516 1518
1534 1535 1537 1538 1540 1541 1541 1542 1543 1543 1544 1544 1544 1544 1543 1544 1542 1539 1537 1535 1535 1536 1538 1542 1539 1535 1537 1540 1541 1540 1541 1540 1541 1532 1523 1522 1523 1517 1512 1509 1511 1512 1513 1514 1516
1535 1536 1538 1540 1543 1541 1542 1543 1544 1544 1554 1548 1545 1545 1544 1543 1542 1540 1538 1538 1536 1538 1537 1538 1537 1537 1539 1541 1543 1547 1534 1534 1535 1539 1546 1529 1550 1522 1516 1515 1514 1513 1513 1514 1518
1534 1536 1538 1540 1540 1542 1544 1544 1544 1544 1585 1548 1545 1545 1543 1544 1543 1542 1540 1538 1539 1539 1540 1543 1539 1541 1544 1544 1540 1542 1532 1532 1529 1538 1540 1540 1545 1526 1518 1519 1515 1517 1517 1519 1520
1534 1535 1537 1540 1541 1542 1543 1543 1545 1562 1573 1548 1544 1544 1544 1544 1542 1542 1542 1539 1539 1538 1538 1539 1538 1541 1542 1539 1538 1535 1532 1531 1532 1538 1561 1541 1546 1539 1529 1518 1521 1521 1520 1520 1521
1536 1536 1538 1539 1541 1541 1542 1544 1559 1576 1545 1551 1547 1544 1546 1547 1544 1545 1549 1551 1557 1557 1560 1547 1545 1541 1541 1543 1538 1540 1545 1569 1568 1575 1570 1538 1545 1542 1527 1519 1518 1518 1520 1521 1521
1538 1538 1538 1538 1539 1541 1542 1545 1563 1555 1550 1544 1545 1545 1550 1547 1547 1551 1552 1560 1556 1556 1564 1566 1567 1548 1543 1545 1548 1546 1550 1578 1578 1589 1575 1544 1544 1539 1523 1520 1519 1519 1521 1519 1520
1539 1538 1538 1538 1539 1541 1543 1566 1570 1556 1551 1550 1547 1551 1552 1550 1550 1553 1561 1563 1562 1560 1568 1574 1563 1548 1545 1545 1545 1547 1559 1550 1567 1596 1589 1561 1540 1528 1520 1521 1522 1522 1520 1520 1518
1539 1539 1539 1539 1540 1542 1545 1558 1553 1550 1549 1549 1554 1552 1561 1558 1557 1555 1562 1565 1563 1561 1560 1564 1570 1552 1548 1544 1545 1546 1548 1567 1578 1591 1581 1563 1554 1543 1525 1523 1520 1523 1518 1518 1517
1540 1540 1542 1542 1542 1542 1559 1558 1551 1550 1548 1551 1555 1558 1559 1560 1560 1561 1568 1566 1563 1562 1561 1564 1568 1562 1553 1553 1555 1557 1564 1560 1560 1576 1581 1577 1561 1531 1528 1527 1525 1521 1520 1518 1517
1540 1543 1544 1543 1544 1548 1553 1549 1551 1551 1549 1551 1553 1557 1560 1559 1563 1563 1566 1564 1563 1563 1566 1566 1575 1583 1563 1553 1551 1552 1558 1564 1586 1576 1582 1581 1550 1524 1527 1523 1523 1523 1522 1520 1518
1542 1544 1545 1543 1557 1559 1550 1552 1553 1553 1554 1554 1557 1557 1557 1561 1568 1565 1563 1562 1563 1563 1565 1565 1578 1589 1571 1561 1554 1559 1551 1560 1568 1578 1576 1585 1554 1523 1525 1525 1524 1524 1523 1521 1519
1544 1548 1546 1545 1547 1549 1552 1554 1557 1556 1556 1556 1558 1558 1561 1565 1564 1565 1566 1564 1564 1563 1563 1564 1571 1577 1586 1574 1570 1566 1551 1554 1561 1585 1560 1549 1539 1531 1528 1527 1527 1525 1522 1518 1514
1545 1549 1549 1556 1552 1551 1552 1554 1557 1559 1558 1559 1561 1562 1562 1570 1569 1570 1568 1567 1564 1562 1564 1566 1575 1570 1566 1564 1563 1556 1553 1552 1554 1548 1560 1540 1537 1530 1530 1528 1525 1520 1516 1511 1506
1545 1548 1549 1551 1552 1552 1555 1557 1556 1558 1560 1562 1566 1566 1565 1569 1569 1570 1569 1569 1569 1564 1564 1565 1575 1571 1566 1562 1563 1555 1549 1548 1547 1543 1540 1537 1533 1529 1527 1526 1521 1516 1510 1506 1502
1546 1547 1549 1554 1554 1557 1559 1556 1557 1557 1560 1560 1562 1564 1568 1567 1566 1565 1564 1563 1562 1563 1566 1568 1574 1583 1566 1570 1568 1557 1542 1541 1538 1534 1536 1538 1529 1526 1523 1521 1517 1511 1506 1501 1497